Weather History for Madison, WI

Change the Weather History Date:

Wednesday, December 5, 2012

  Actual Average Record
Temperature  
Mean Temperature 27 °F 27 °F  
Max Temperature 35 °F 34 °F 64 °F (2001)
Min Temperature 19 °F 19 °F -15 °F (1871)
Degree Days  
Heating Degree Days 38 38  
Month to date heating degree days 110 188  
Since 1 July heating degree days 1625 1767  
Cooling Degree Days 0 0  
Month to date cooling degree days 0 0  
Year to date cooling degree days 1068 568  
Moisture  
Dew Point 18 °F    
Average Humidity 63    
Maximum Humidity 78    
Minimum Humidity 47    
Precipitation  
Precipitation 0.00 in 0.07 in 1.16 in (1982)
Month to date precipitation 0.16 0.36  
Year to date precipitation 23.92 33.10  
Snow  
Snow 0.00 in 0.40 in 4.80 in (1936)
Month to date snowfall 0.0 2.0  
Since 1 July snowfall 0.1 6.1  
Snow Depth 0.00 in    
Sea Level Pressure  
Sea Level Pressure 30.36 in    
Wind  
Wind Speed 7 mph (ESE)    
Max Wind Speed 16 mph    
Max Gust Speed 21 mph    
Visibility 10 miles    
Events      
T = Trace of Precipitation, MM = Missing Value Source: NWS Daily Summary

Daily Weather History Graph

Daily Weather History Graph

Search for Another Location

Airport:

Trip Planner

Search our weather history database for the weather conditions in past years. The results will help you decide how hot, cold, wet, or windy it might be!

Date:

Astronomy

Dec. 05, 2012 Rise Set
Actual Time 7:14 AM CST 4:22 PM CST
Civil Twilight 6:41 AM CST 4:54 PM CST
Nautical Twilight 6:06 AM CST 5:30 PM CST
Astronomical Twilight 5:31 AM CST 6:04 PM CST
Moon 11:20 PM CST (12/5) 11:30 AM CST (12/5)
Length of Visible Light 10h 12m
Length of Day
9h 08m
Waning Gibbous, 59% of the Moon is Illuminated
Dec 5
Waning Gibbous
Dec 6
Last Quarter
Dec 13
New
Dec 19
First Quarter
Dec 28
Full

Hourly Weather History & Observations

Time (CST) Temp. Windchill Dew Point Humidity Pressure Visibility Wind Dir Wind Speed Gust Speed Precip Events Conditions
12:53 AM 26.1 °F 18.4 °F 15.1 °F 63% 30.38 in 10.0 mi NNW 6.9 mph - N/A   Clear
1:53 AM 25.0 °F 15.5 °F 14.0 °F 63% 30.40 in 10.0 mi NNW 9.2 mph - N/A   Clear
2:53 AM 23.0 °F 17.0 °F 12.9 °F 65% 30.42 in 10.0 mi NNW 4.6 mph - N/A   Clear
3:53 AM 21.9 °F 15.7 °F 12.0 °F 66% 30.42 in 10.0 mi North 4.6 mph - N/A   Clear
4:53 AM 19.9 °F 14.9 °F 12.0 °F 71% 30.45 in 10.0 mi North 3.5 mph - N/A   Clear
5:53 AM 19.9 °F 12.1 °F 12.0 °F 71% 30.44 in 10.0 mi North 5.8 mph - N/A   Clear
6:53 AM 19.9 °F - 12.0 °F 71% 30.46 in 10.0 mi Calm Calm - N/A   Clear
8:53 AM 25.0 °F 18.1 °F 16.0 °F 69% 30.45 in 10.0 mi ENE 5.8 mph - N/A   Clear
9:53 AM 28.0 °F 20.8 °F 15.1 °F 58% 30.47 in 10.0 mi East 6.9 mph - N/A   Clear
10:53 AM 30.0 °F 23.2 °F 15.1 °F 54% 30.47 in 10.0 mi ESE 6.9 mph - N/A   Clear
11:53 AM 32.0 °F 24.8 °F 15.1 °F 50% 30.43 in 10.0 mi ESE 8.1 mph - N/A   Clear
12:53 PM 33.1 °F 28.7 °F 16.0 °F 50% 30.40 in 10.0 mi SSE 4.6 mph - N/A   Clear
1:53 PM 34.0 °F 31.0 °F 15.1 °F 46% 30.38 in 10.0 mi SSE 3.5 mph - N/A   Clear
2:53 PM 34.0 °F 25.5 °F 16.0 °F 48% 30.36 in 10.0 mi SE 11.5 mph - N/A   Clear
3:53 PM 33.1 °F 26.1 °F 17.1 °F 52% 30.36 in 10.0 mi SE 8.1 mph - N/A   Clear
4:53 PM 30.9 °F 25.2 °F 19.0 °F 61% 30.35 in 10.0 mi SE 5.8 mph - N/A   Clear
5:53 PM 30.9 °F 24.3 °F 21.0 °F 67% 30.32 in 10.0 mi SE 6.9 mph - N/A   Clear
6:53 PM 30.9 °F 24.3 °F 21.9 °F 69% 30.30 in 10.0 mi SE 6.9 mph - N/A   Clear
7:53 PM 30.9 °F 23.5 °F 24.1 °F 76% 30.28 in 10.0 mi SE 8.1 mph - N/A   Clear
8:53 PM 32.0 °F 23.6 °F 25.0 °F 75% 30.25 in 10.0 mi SSE 10.4 mph - N/A   Clear
9:53 PM 32.0 °F 23.6 °F 26.1 °F 79% 30.23 in 10.0 mi SSE 10.4 mph - N/A   Clear
10:53 PM 33.1 °F 25.5 °F 26.1 °F 75% 30.21 in 10.0 mi SSE 9.2 mph - N/A   Clear
11:53 PM 33.1 °F 23.4 °F 27.0 °F 78% 30.20 in 10.0 mi South 13.8 mph - N/A   Clear